{"data":{"norad_id":38040,"intl_designator":"2011-080A","name":"GLOBALSTAR M084","alt_names":[],"object_type":"PAYLOAD","status":"ACTIVE","operator":null,"country":"GLOB","launch_date":"2011-12-28","launch_site_code":"TYMSC","launch_vehicle":null,"mission":null,"orbit_class":"UNKNOWN","rcs_meters":4.6037,"size_class":null,"mass_kg":null,"dimensions":null,"purposes":["comms"],"wikipedia_slug":null,"has_3d_model":false,"image_url":null,"decayed_at":null,"tle_current":{"epoch":"2026-05-25T03:15:46.021248Z","epoch_age_seconds":66897,"freshness":"FRESH","line1":"1 38040U 11080A   26145.13594932 -.00000090  00000+0  74200-4 0  9995","line2":"2 38040  52.0008  87.4564 0000774  50.6284 322.6410 12.62267171665852","mean_motion":12.62267171,"eccentricity":7.74e-5,"inclination_deg":52.0008,"raan_deg":87.4564,"arg_perigee_deg":50.6284,"mean_anomaly_deg":322.641,"bstar":7.42e-5,"rev_number":66585,"period_min":114.08044454323,"perigee_km":1412.9974832672,"apogee_km":1414.2036442421,"semimajor_km":7791.7375637546,"source":"CELESTRAK","updated_at":"2026-05-25T13:38:23.044140Z"}}}